Location: Colebrook
(42.0017°N, 73.0973°W)
Time: 14:42:33
(UTC-05:00)

CAS-4B - Pass Details

Date: 06 December 2021
Orbit: 529 x 539 km, 43.0° (Epoch: 16 January)

Event Time Altitude Azimuth Distance (km) Brightness Sun altitude
Rises 19:33:45 0° 242° (WSW) 2,671 ? -35.0°
Reaches altitude 10° 19:36:01 10° 239° (WSW) 1,780 ? -35.5°
Enters shadow 19:36:01 10° 239° (WSW) 1,779 ? -35.5°
